Miscellaneous Local Product
Issued by NWS North Platte, NE

Home | Current Version | Previous Version | Text Only | Print | Product List | Glossary On
Versions: 1 2 3 4 5 6 7 8 9 10 11 12 13 14 15 16 17 18 19 20 21 22 23 24 25 26 27 28 29 30 31 32 33 34 35 36 37 38 39 40 41 42 43 44 45 46 47 48 49 50
000
AXUS43 KLBF 251210
MISLBF


WESTERN AND NORTH CENTRAL NEBRASKA HOURLY WEATHER ROUNDUP
NATIONAL WEATHER SERVICE NORTH PLATTE NE
700 AM CDT MON MAY 25 2015

***STATIONS NOT REPORTING VARIABLES SUCH AS SKY/WEATHER OR
PRESSURE ARE PROVIDED BY THE NEBRASKA DEPARTMENT OF
ROADS...RAWS...AND APRS NETWORKS...AND ARE NOT UNDER
NATIONAL WEATHER SERVICE QUALITY CONTROL***

...OBSERVATIONS IN AND NEAR THE EASTERN PANHANDLE OF NEBRASKA...

CITY           SKY/WX    TMP DP  RH WIND       PRES   REMARKS
PINE RIDGE     LGT RAIN  53  50  89 N14       29.80R
CHADRON        LGT RAIN  52  50  93 N10       29.81S FOG
ALLIANCE       LGT RAIN  50  49  96 NW6       29.80S
SIDNEY         LGT RAIN  50  49  96 N5        29.83R
WHITECLAY        N/A     51  50  95 NW10        N/A
BIG SPRINGS      N/A     53  52  96 W3          N/A
$$

...OBSERVATIONS IN NORTH CENTRAL NEBRASKA...

CITY           SKY/WX    TMP DP  RH WIND       PRES   REMARKS
VALENTINE      CLOUDY    56  55  97 NE7       29.78R FOG
THEDFORD       CLOUDY    53  52  95 SW3       29.78R
AINSWORTH      FOG       56  56 100 E5        29.77R VSB<1/4
O`NEILL        FOG       57  56  99 CALM      29.76R VSB<1/4
ORD            FOG       57  57 100 S8        29.75R VSB 1/4
BROKEN BOW     CLOUDY    52  50  93 W6        29.76R
VALENTINE NWR    N/A     54  54  99 E6          N/A
SPRINGVIEW       N/A     57  56  96 CALM        N/A
HALSEY           N/A     51  51 100 W3          N/A
ROSE             N/A     56  56  99 N3          N/A
NEWPORT          N/A     58  57  99 E6          N/A
SARGENT          N/A     52  51  98 CALM        N/A
COMSTOCK         N/A     53  53  99 W6          N/A
EWING            N/A     58  57  98 CALM        N/A
$$

...OBSERVATIONS IN SOUTHWEST NEBRASKA AND FAR NORTHEAST COLORADO...

CITY           SKY/WX    TMP DP  RH WIND       PRES   REMARKS
WRAY           FAIR     N/A N/A N/A W6        29.81S
IMPERIAL       CLOUDY    51  49  92 W3        29.79S
OGALLALA       LGT RAIN  52  51  97 W3        29.80R
NORTH PLATTE   LGT RAIN  53  51  93 SW5       29.79R
MCCOOK         MOCLDY    51  50  96 SE3       29.79R FOG
LEXINGTON      CLOUDY    54  52  93 SW6       29.78R
GOTHENBURG       N/A     54  50  87 W3          N/A
CALLAWAY         N/A     53  52  97 W10         N/A
$$

...NORTH PLATTE AREA...

CITY           SKY/WX    TMP DP  RH WIND       PRES   REMARKS
AIRPORT        LGT RAIN  53  51  93 SW5       29.79R
DOWNTOWN         N/A     53  51  93 CALM        N/A
$$

...SOME WEATHER OBSERVATIONS FROM AROUND THE REGION...

CITY           SKY/WX    TMP DP  RH WIND       PRES   REMARKS
DENVER         PTCLDY    44  39  82 W6        29.89R
LARAMIE        CLOUDY    39  36  89 N5        29.93R
CHEYENNE       LGT RAIN  44  41  89 N6        29.89R
SCOTTSBLUFF    LGT RAIN  51  49  92 NW9       29.83R
RAPID CITY     CLOUDY    51  50  96 NW7       29.83S
PIERRE         CLOUDY    56  56 100 NE7       29.77R FOG
WINNER         FOG       58  56  93 E5        29.76S VSB 1/4
SIOUX FALLS    CLOUDY    59  57  93 W6        29.74R
OMAHA          CLOUDY    62  61  96 S10       29.79R FOG
GRAND ISLAND   CLOUDY    56  54  93 S8        29.78R
KANSAS CITY    MOSUNNY   60  60 100 S7        29.91R
WICHITA        CLOUDY    58  56  93 E13       29.85F
HAYS           CLOUDY    55  48  76 S5        29.81R
LIBERAL        CLEAR     50  46  87 CALM      29.82R
GOODLAND       CLEAR     48  45  89 W8        29.83R
$$



USA.gov is the U.S. government's official web portal to all federal, state and local government web resources and services.